sat.trackr.live / text

‹ back to catalog

STARLINK-34936

NORAD 65898 · 2025-224S

PAYLOAD ACTIVE UNKNOWN

§ Identity

Operator
Country
US
Launch date
2025-10-07
Launch site
AFETR
Launch vehicle
Mass (kg)
RCS (m²)

Purposes: comms

External: N2YO · Heavens-Above · Gunter

§ Orbital elements

Epoch: 2026-09-20T11:55:41.605248Z

Period
93.85 min
Inclination
53.1591°
Eccentricity
0.0000631
Mean motion
15.34381444 rev/d
Perigee alt
462.3 km
Apogee alt
463.2 km
Semi-major
6,840.9 km
B*
5.2822e-4
RAAN
181.9819°
Arg perigee
113.7806°
Mean anomaly
246.3263°
Rev number
5,476

§ Raw data

STARLINK-349361 65898U 25224S   26263.49700932  .00017502  00000+0  52822-3 0  99902 65898  53.1591 181.9819 0000631 113.7806 246.3263 15.34381444 54760

JSON: /api/v1/satellites/65898 · /tle

For live sub-satellite position, see the globe view (requires WebGL).

§ Visibility from observer

Set your observer location to see the next 7 days of passes ≥ 10°. The values pass through the URL so the page stays shareable.

No JS? Fill the form by hand. The geolocation button needs JavaScript.